Theta_e
310 309 309 309 309 307 307 308 308 305 303 302 302 301 301 301 301 302 302 302 303 305 305 306 311 308 316 322 319 326 317 327 321 326 325 336 340 345 346 344 346 349 348 347 346 344 342
308 309 309 309 308 307 307 307 307 304 302 301 301 301 301 301 301 301 302 302 304 308 313 317 316 313 319 323 321 319 322 325 324 329 325 332 337 341 343 343 345 346 346 346 344 343 341
309 309 308 308 308 306 305 305 304 302 301 301 301 301 301 300 300 301 302 302 307 317 317 316 318 315 322 325 320 316 324 325 327 329 327 329 332 340 341 342 342 345 341 345 345 340 338
308 308 308 308 307 306 305 304 302 301 301 301 301 300 300 300 301 301 302 304 314 320 318 315 316 318 326 323 323 317 324 327 330 330 328 328 330 337 340 339 335 342 342 341 339 338 337
308 308 307 307 307 303 302 301 301 301 301 301 301 300 300 300 301 302 303 306 317 318 316 315 320 322 328 318 319 321 322 330 332 333 333 330 333 336 339 339 335 334 339 340 339 338 338
307 307 307 307 306 302 302 302 301 302 302 302 301 300 300 300 302 304 306 310 315 318 321 322 323 325 324 324 322 319 321 328 335 336 335 334 335 336 340 342 339 335 336 339 341 340 338
307 307 307 307 305 304 303 303 303 302 302 302 302 301 300 301 303 307 310 313 318 326 324 328 328 326 326 324 321 319 324 328 335 335 337 336 337 341 334 340 337 336 335 336 339 339 339
307 307 306 305 304 304 303 302 302 303 303 303 302 301 300 301 306 308 310 313 311 310 313 314 315 316 320 324 326 320 321 326 336 337 331 332 336 331 329 329 334 335 335 336 337 338 339
307 305 305 305 303 303 303 303 303 303 303 303 302 301 300 301 306 309 311 309 309 310 313 314 316 317 318 324 326 327 320 326 333 337 330 328 328 327 326 326 328 330 333 334 335 337 338
306 305 306 304 304 304 304 304 304 304 303 303 302 301 301 303 307 309 310 307 308 310 316 317 319 320 319 321 325 326 320 323 329 334 334 329 328 327 326 326 326 327 328 331 332 334 338
305 305 305 305 304 304 304 305 304 304 303 303 302 301 301 306 309 311 307 307 308 312 318 321 320 319 321 320 325 325 323 320 326 327 330 331 328 327 327 327 326 327 327 327 330 332 334
305 305 305 304 304 304 304 304 304 303 303 302 302 302 303 307 308 307 306 307 311 317 317 322 320 320 321 321 324 326 325 321 324 326 327 328 327 327 327 327 326 326 326 326 327 328 333
306 305 305 305 305 303 304 304 303 302 302 302 302 304 305 306 308 306 307 310 312 313 318 323 321 322 322 323 324 326 327 322 324 325 327 327 327 326 326 327 327 327 327 328 327 328 330
306 305 305 305 304 304 303 303 302 302 302 302 303 306 308 307 306 306 308 310 310 313 318 317 317 318 320 323 324 325 327 329 323 324 326 328 328 327 327 327 328 328 327 328 330 329 328
305 305 304 303 303 304 304 303 303 302 302 303 306 308 308 306 306 306 310 310 310 314 313 313 315 321 321 324 325 325 325 328 327 324 327 331 330 328 328 327 329 329 330 328 329 329 329
303 303 303 303 303 303 305 304 303 303 302 304 308 309 309 305 306 308 311 309 310 309 309 310 313 318 324 325 325 326 326 326 327 327 329 331 333 330 328 328 327 330 328 328 329 332 332
302 302 302 303 304 303 303 304 304 303 303 305 309 310 308 306 307 310 308 308 308 307 308 308 309 312 316 319 321 326 327 325 325 327 328 330 332 333 331 328 329 328 330 329 329 329 331
301 302 302 302 303 304 303 303 303 303 303 306 309 311 308 306 309 308 308 307 305 307 307 308 310 312 313 315 319 323 326 326 319 324 329 330 332 335 331 328 329 329 329 331 331 334 329
301 301 302 302 303 303 303 304 303 303 303 306 311 310 308 307 308 308 307 306 307 307 307 307 308 311 314 316 319 322 323 321 318 323 328 329 332 336 336 331 329 329 329 330 330 331 334
300 301 302 302 302 303 303 304 304 303 302 305 310 310 309 309 308 307 307 307 306 307 307 307 309 309 312 313 314 318 320 319 317 319 319 323 331 334 338 335 331 330 330 329 331 333 332
300 301 301 302 302 302 302 303 304 304 304 306 309 309 308 308 308 307 307 307 307 307 307 306 309 310 310 312 314 317 318 318 318 319 321 324 331 332 332 333 332 331 330 329 330 331 332
300 301 301 301 301 301 301 302 303 304 304 307 309 308 308 309 307 307 307 308 307 307 306 306 307 307 307 310 312 312 315 315 317 318 319 322 326 330 333 332 331 331 332 330 330 330 331
300 300 300 301 301 301 301 302 304 304 305 305 306 306 307 308 308 307 308 307 306 306 306 307 307 306 307 308 309 310 310 312 313 314 316 319 324 330 334 332 331 332 331 332 332 331 331
300 300 300 301 301 301 301 302 304 305 305 305 304 304 308 309 308 308 306 306 307 305 306 306 306 307 308 307 308 309 310 311 312 312 313 317 322 324 328 331 335 331 330 330 330 331 331
300 300 300 300 300 301 302 304 305 305 305 305 304 304 306 310 307 308 307 307 306 306 307 307 307 306 307 308 309 309 310 311 312 312 313 314 318 323 326 330 330 329 328 330 330 331 330
300 300 300 301 302 303 304 306 306 306 306 306 306 304 304 306 309 308 309 309 307 307 308 308 308 307 307 308 309 312 311 311 313 313 312 313 315 318 324 327 332 328 327 325 329 331 330
302 303 303 303 302 302 305 307 307 307 307 307 307 304 304 306 306 307 309 310 308 308 308 307 308 307 308 310 312 313 310 311 312 313 314 313 314 317 319 323 325 325 327 328 330 344 335
303 302 302 302 303 304 307 307 307 307 307 308 309 306 305 305 305 306 307 308 308 308 309 307 308 308 307 311 311 311 310 310 309 311 313 317 315 316 318 320 323 321 321 327 331 333 333
302 302 302 303 304 306 307 306 307 307 307 308 309 308 306 305 306 307 307 307 307 307 307 307 307 308 309 311 313 312 312 311 312 314 311 312 314 316 316 317 319 319 320 320 320 323 324
Wind_Speed
21 21 21 22 23 24 25 25 26 28 29 30 31 33 35 37 38 37 40 32 33 30 28 23 17 10 5 10 16 5 4 7 22 31 31 24 25 23 23 19 15 18 17 10 4 4 5
19 21 21 22 23 24 25 26 27 28 30 32 33 35 37 38 40 41 41 30 34 27 17 13 11 8 10 18 10 14 9 14 21 33 31 27 22 23 21 20 18 15 17 11 10 11 9
20 20 21 22 24 25 26 27 28 29 31 33 35 37 39 41 42 44 36 32 28 17 17 11 12 14 15 19 5 8 16 20 22 32 25 29 25 19 21 16 16 19 8 16 14 13 9
20 21 22 23 24 25 26 27 29 30 32 34 36 38 39 41 41 45 26 29 17 15 18 6 14 12 9 4 22 13 16 21 22 27 26 25 27 21 23 15 7 19 19 17 20 19 15
20 21 22 23 24 26 27 28 29 31 33 34 36 38 39 41 42 35 29 21 10 12 6 12 10 14 10 4 15 25 21 24 25 24 23 21 23 16 22 18 15 17 18 23 20 22 16
20 21 22 23 24 26 28 29 30 31 34 35 36 39 40 41 39 29 30 17 9 5 2 6 8 7 10 11 15 23 25 25 22 19 18 18 15 18 20 20 20 22 23 21 22 17 18
19 21 22 23 25 26 28 29 30 32 34 36 38 40 41 39 26 27 29 17 4 7 14 14 6 15 2 8 5 20 26 23 22 21 19 24 20 26 29 27 24 22 21 23 22 17 22
20 21 23 24 26 28 30 31 31 33 34 36 38 40 41 35 16 20 20 13 9 10 16 22 29 28 32 7 12 18 29 23 25 26 26 19 27 26 25 27 25 27 25 23 21 14 13
20 22 24 26 27 28 29 30 32 33 34 36 38 39 39 31 12 16 8 19 16 15 9 18 27 25 23 25 16 23 31 29 29 30 29 27 20 27 26 26 27 28 27 23 19 21 17
20 22 23 24 25 27 28 29 31 32 34 35 37 38 33 29 7 18 12 22 18 11 7 9 10 8 22 20 20 26 35 31 20 33 31 29 25 25 27 27 26 26 26 23 20 19 18
20 21 22 24 25 26 28 31 33 33 34 35 36 37 24 10 14 11 19 23 18 8 7 13 10 8 11 23 8 30 34 34 27 26 29 31 28 23 27 27 25 25 20 25 23 22 20
19 20 22 23 24 26 27 30 32 34 36 37 37 29 17 8 14 16 23 21 8 8 10 7 7 10 14 24 25 23 27 32 30 25 27 30 21 24 22 23 23 21 16 19 22 19 21
19 20 22 23 25 27 29 32 34 36 37 39 38 19 9 10 12 22 20 11 8 11 1 9 11 10 12 17 24 17 32 32 29 29 29 28 32 24 22 22 24 18 19 12 16 18 20
19 20 22 24 26 27 29 30 32 34 35 39 37 14 9 9 18 18 17 12 14 19 15 21 19 22 20 19 22 24 27 26 35 30 19 22 24 33 21 28 24 26 25 15 21 18 17
19 20 22 24 24 26 27 29 32 35 37 34 29 9 5 16 17 14 9 12 12 13 18 19 26 20 18 22 7 25 27 28 30 34 31 25 32 31 31 24 27 23 25 27 22 23 14
19 20 21 22 23 24 26 29 31 34 37 29 23 17 1 20 16 13 9 15 13 12 17 16 20 16 22 15 9 16 23 24 26 34 30 28 18 31 31 26 29 27 26 23 17 18 16
19 20 20 21 23 24 25 27 30 32 36 28 15 7 12 20 15 8 9 11 17 17 13 13 20 21 18 19 25 17 20 8 10 14 33 32 20 18 25 29 27 26 22 24 20 18 13
19 20 21 21 22 23 24 25 28 30 34 24 10 7 16 19 11 2 7 9 6 13 13 13 15 19 18 13 18 20 16 10 12 14 15 22 14 20 31 28 26 27 28 27 17 24 17
19 21 21 21 21 22 23 24 27 28 29 24 9 9 1 13 7 9 9 13 9 12 9 9 12 13 19 17 8 14 11 9 11 11 8 8 14 16 21 25 28 31 31 25 27 18 21
20 21 21 22 21 21 22 23 23 25 26 18 6 5 6 8 7 12 13 15 14 6 7 12 7 7 16 17 16 11 10 12 7 9 14 9 16 23 17 24 23 28 28 30 24 19 18
19 21 21 22 22 22 22 22 22 22 23 16 5 5 5 7 10 12 12 13 12 7 9 13 1 7 8 8 17 9 11 15 11 3 11 6 15 20 26 17 8 28 31 31 30 24 24
21 22 22 23 24 23 23 23 21 19 20 7 5 5 7 12 7 13 12 13 10 13 14 15 8 15 11 12 12 15 13 13 5 13 11 11 12 18 24 23 6 13 20 33 30 28 25
23 24 24 25 26 25 25 24 21 17 13 3 7 13 5 7 10 8 11 13 13 16 11 9 10 13 15 9 13 16 11 17 16 14 13 12 10 8 15 20 11 17 20 19 23 27 24
24 25 26 26 27 27 26 25 22 17 13 7 8 6 4 6 8 11 13 15 15 12 15 17 16 14 16 15 14 19 19 17 17 15 13 13 10 8 10 17 23 13 16 16 15 15 13
26 26 27 27 28 29 28 25 22 20 16 16 14 6 3 5 8 14 11 11 13 12 16 17 17 9 12 14 14 15 14 13 17 16 14 13 10 7 10 13 5 16 15 20 22 21 17
27 29 30 30 30 29 27 25 23 22 20 19 20 17 4 3 6 4 13 19 9 10 14 5 14 8 11 8 8 11 10 9 13 15 16 14 12 11 9 14 18 7 13 3 3 11 15
30 31 32 31 31 29 27 25 24 22 20 20 15 16 8 3 7 15 6 9 8 8 8 12 9 9 7 5 7 7 12 4 9 8 19 13 12 15 14 10 11 6 5 6 13 5 0
32 33 33 32 31 30 28 27 25 22 19 19 12 20 15 3 8 17 20 14 10 9 7 7 9 7 7 3 5 4 8 3 11 14 11 11 15 14 15 18 21 12 6 6 8 8 13
33 34 33 32 31 31 29 27 24 21 19 16 8 15 22 6 5 16 21 25 25 21 9 3 11 13 3 3 3 5 7 4 11 11 15 14 13 10 15 12 8 9 11 14 4 5 9
Wind_Direction
21 18 18 15 13 12 10 7 4 3 0 358 356 353 352 350 348 345 341 333 329 318 307 298 283 271 267 223 249 231 250 183 189 193 208 199 207 204 216 223 222 233 268 217 247 214 200
18 19 16 12 10 9 7 5 2 2 0 358 356 354 352 348 346 342 340 332 327 321 313 296 265 213 229 247 258 223 201 172 184 193 208 203 210 208 225 235 214 216 240 245 228 222 200
21 17 12 10 8 8 7 5 4 3 1 360 356 354 350 347 344 340 337 334 330 323 317 279 232 193 234 238 211 218 204 197 195 197 206 206 213 211 226 243 235 243 239 231 236 230 223
18 14 11 9 6 7 7 4 3 3 1 359 357 353 349 346 343 338 334 334 328 327 322 267 182 195 252 241 240 228 204 199 198 204 216 206 214 222 226 243 242 223 238 230 216 213 213
17 14 10 7 5 7 8 5 3 2 360 357 356 353 350 347 342 341 336 328 323 347 334 141 156 222 258 181 219 213 205 201 193 202 217 208 214 224 222 236 227 217 225 221 221 204 208
15 11 8 4 3 4 5 3 2 0 358 356 354 352 349 347 345 348 339 320 270 289 143 219 266 211 245 227 208 203 204 203 192 191 203 213 211 212 223 213 222 216 215 222 222 183 209
12 9 5 2 0 1 1 1 360 359 358 355 353 351 348 348 352 359 343 319 273 201 237 258 191 248 299 198 173 191 189 192 198 195 197 201 203 212 210 217 228 239 223 228 209 186 195
9 7 5 4 3 2 0 360 360 359 357 354 352 349 347 346 352 2 17 33 23 306 294 272 258 258 257 242 206 193 185 191 195 197 199 188 218 215 221 216 223 232 243 226 230 223 205
4 7 5 5 4 2 360 358 357 356 355 353 350 348 344 342 328 349 350 10 335 322 267 281 238 232 217 224 225 196 191 199 196 199 201 207 211 216 212 220 214 228 229 235 233 223 211
2 5 5 6 3 360 358 356 354 353 353 351 348 345 341 339 307 339 4 340 332 321 279 249 196 225 213 199 230 238 193 199 192 208 207 221 223 197 215 218 217 221 222 240 237 240 223
3 3 5 3 1 358 358 357 355 352 349 348 346 344 340 333 312 336 334 327 324 265 279 112 129 119 181 191 188 200 188 203 210 207 208 213 218 205 211 215 215 228 223 218 236 244 250
0 3 1 359 360 0 360 358 355 352 348 346 342 343 336 349 289 334 324 319 287 238 236 159 124 189 181 209 247 170 187 209 220 210 214 229 208 223 214 216 218 221 228 235 220 232 237
359 1 359 357 358 1 0 358 355 352 347 343 339 339 315 311 328 324 323 294 246 240 4 31 357 321 231 205 221 206 188 196 206 215 215 213 229 212 225 211 208 202 209 206 218 219 233
356 359 359 359 359 360 359 357 354 351 347 341 337 324 292 305 327 322 309 273 253 275 13 353 329 308 278 264 202 205 195 202 213 211 213 211 212 221 200 212 199 201 208 214 208 218 227
357 359 1 360 358 358 356 354 352 350 346 344 342 325 284 341 329 316 287 270 283 351 347 335 321 282 252 232 254 207 214 212 206 219 219 204 224 194 215 212 212 195 213 217 234 212 236
357 359 0 358 357 356 354 351 350 349 347 346 325 303 242 342 326 287 270 271 353 355 335 324 302 305 323 342 217 252 212 222 219 211 235 246 225 221 198 207 217 226 205 215 236 252 218
355 356 356 357 357 356 353 350 349 349 348 345 301 302 21 337 295 272 300 353 339 330 322 314 307 300 307 317 314 282 246 80 359 283 216 236 252 242 203 201 201 208 214 214 229 232 237
350 350 350 353 352 353 353 350 350 352 351 351 311 317 4 333 290 18 325 349 281 302 309 328 314 296 280 303 299 301 334 44 354 313 267 213 225 239 203 197 213 209 214 201 221 217 236
344 345 345 347 348 348 347 349 351 352 356 336 323 301 107 332 359 331 349 316 304 318 340 336 314 340 317 293 303 335 318 341 346 318 5 226 225 226 229 192 199 219 206 217 213 231 213
339 339 338 340 341 341 342 343 347 349 352 340 306 309 350 296 347 330 338 312 321 51 311 319 358 343 338 308 265 275 310 312 329 340 322 287 251 228 217 198 189 211 209 214 215 217 223
335 335 334 333 333 335 336 336 340 344 351 331 289 345 2 309 330 337 302 290 295 326 341 301 195 323 326 314 317 13 323 318 298 65 313 271 242 241 252 253 229 202 213 216 215 219 222
328 328 328 325 325 329 330 330 333 337 343 310 308 342 323 296 317 302 296 302 305 333 329 303 319 331 314 296 296 302 304 319 328 334 338 313 268 253 252 249 217 258 240 214 214 220 222
324 324 322 320 322 323 324 326 328 328 334 347 319 307 300 290 298 300 295 318 317 302 303 326 308 308 301 316 291 301 259 272 280 293 300 299 280 244 232 238 226 238 234 238 225 210 223
322 320 319 319 320 320 321 322 320 317 299 257 278 281 277 271 296 293 299 294 300 312 309 295 292 288 292 290 301 277 255 250 255 256 261 267 292 275 244 226 227 232 203 235 239 251 245
321 320 319 320 319 319 319 316 314 308 297 268 255 244 253 266 256 287 301 307 303 283 257 271 275 286 301 282 276 269 243 235 235 232 234 239 256 266 245 233 199 214 233 208 214 228 230
320 318 317 318 318 317 315 312 309 305 298 275 254 254 213 274 254 350 310 294 287 309 294 302 326 312 286 301 293 263 252 240 204 200 208 220 216 257 256 245 226 214 92 75 51 231 225
318 316 316 319 318 317 312 309 306 306 301 286 248 229 220 242 260 268 254 307 322 309 289 297 323 297 265 263 282 259 263 277 263 208 174 200 222 225 236 252 244 284 49 244 192 78 72
318 317 319 320 318 314 310 309 308 309 303 298 273 226 203 227 267 260 267 263 275 271 271 313 299 223 274 331 288 297 274 301 270 263 255 215 204 226 229 238 238 281 345 234 48 33 8
318 317 320 317 314 311 311 310 310 310 305 302 253 229 231 216 257 285 281 270 263 262 268 241 285 310 332 309 326 318 287 259 284 274 225 258 262 241 227 229 241 289 311 287 45 338 319